Weather History for Fort Indiantown Gap, PA

Change the Weather History Date:

Wednesday, February 27, 2013

  Actual Average Record
Temperature  
Mean Temperature 40 °F -  
Max Temperature 48 °F 41 °F 75 °F (1997)
Min Temperature 33 °F 27 °F 5 °F (2014)
Degree Days  
Heating Degree Days 24    
Moisture  
Dew Point 38 °F    
Average Humidity 93    
Maximum Humidity 100    
Minimum Humidity 62    
Precipitation  
Precipitation 0.23 in - - ()
Sea Level Pressure  
Sea Level Pressure 29.62 in    
Wind  
Wind Speed 12 mph (NNW)    
Max Wind Speed 20 mph    
Max Gust Speed 30 mph    
Visibility 8 miles    
Events Rain    
Averages and records for this station are not official NWS values.
T = Trace of Precipitation, MM = Missing Value Source: NWS Daily Summary

Daily Weather History Graph

Daily Weather History Graph

Search for Another Location

Airport:

Trip Planner

Search our weather history database for the weather conditions in past years. The results will help you decide how hot, cold, wet, or windy it might be!

Date:

Astronomy

Feb. 27, 2013 Rise Set
Actual Time 6:42 AM EST 5:55 PM EST
Civil Twilight 6:15 AM EST 6:23 PM EST
Nautical Twilight 5:43 AM EST 6:54 PM EST
Astronomical Twilight 5:12 AM EST 7:26 PM EST
Moon 8:15 PM EST (2/27) 7:16 AM EST (2/27)
Length of Visible Light 12h 07m
Length of Day
11h 13m
Waning Gibbous, 96% of the Moon is Illuminated
Feb 27
Waning Gibbous
Mar 4
Last Quarter
Mar 11
New
Mar 19
First Quarter
Mar 27
Full

Hourly Weather History & Observations

Time (EST) Temp. Windchill Dew Point Humidity Pressure Visibility Wind Dir Wind Speed Gust Speed Precip Events Conditions
12:27 AM 33.8 °F 24.3 °F 33.8 °F 100% 29.74 in 9.0 mi ENE 13.8 mph 26.5 mph N/A   Light Drizzle
12:33 AM 33.8 °F 24.8 °F 33.8 °F 100% 29.73 in 10.0 mi ENE 12.7 mph 26.5 mph N/A   Overcast
12:41 AM 33.8 °F 23.2 °F 33.8 °F 100% 29.72 in 9.0 mi ENE 17.3 mph 23.0 mph N/A   Light Drizzle
12:53 AM 33.8 °F 23.9 °F 33.8 °F 100% 29.71 in 10.0 mi ENE 15.0 mph 24.2 mph N/A   Overcast
12:55 AM 34.5 °F 24.1 °F 34.5 °F 100% 29.71 in 10.0 mi ENE 17.3 mph 25.3 mph 0.04 in   Overcast
1:11 AM 35.6 °F 25.2 °F 35.6 °F 100% 29.71 in 8.0 mi ENE 18.4 mph 29.9 mph N/A   Overcast
1:55 AM 35.6 °F 25.9 °F 35.6 °F 100% 29.68 in 10.0 mi ENE 16.1 mph 28.8 mph 0.01 in   Overcast
2:00 AM 35.6 °F 26.2 °F 35.6 °F 100% 29.68 in 10.0 mi ENE 15.0 mph 25.3 mph N/A   Overcast
2:14 AM 35.6 °F 25.5 °F 35.6 °F 100% 29.66 in 6.0 mi ENE 17.3 mph 25.3 mph N/A Rain Light Rain
2:33 AM 35.6 °F 25.2 °F 35.6 °F 100% 29.64 in 10.0 mi ENE 18.4 mph 26.5 mph N/A   Overcast
2:36 AM 35.6 °F 25.2 °F 35.6 °F 100% 29.64 in 10.0 mi ENE 18.4 mph 25.3 mph N/A   Overcast
2:49 AM 37.4 °F 27.5 °F 37.4 °F 100% 29.62 in 10.0 mi ENE 18.4 mph 27.6 mph N/A   Overcast
2:55 AM 36.5 °F 27.8 °F 36.5 °F 100% 29.62 in 10.0 mi ENE 13.8 mph 27.6 mph 0.01 in   Overcast
3:04 AM 37.4 °F 28.2 °F 37.4 °F 100% 29.62 in 10.0 mi ENE 16.1 mph 23.0 mph N/A   Overcast
3:55 AM 36.7 °F 28.0 °F 36.7 °F 100% 29.59 in 10.0 mi ENE 13.8 mph 24.2 mph N/A   Overcast
4:55 AM 37.4 °F 30.3 °F 37.4 °F 100% 29.60 in 7.0 mi NE 10.4 mph - 0.01 in   Overcast
5:55 AM 38.1 °F 29.8 °F 38.1 °F 100% 29.57 in 10.0 mi ENE 13.8 mph 23.0 mph N/A   Overcast
6:15 AM 39.2 °F 31.6 °F 39.2 °F 100% 29.56 in 10.0 mi NE 12.7 mph 20.7 mph N/A   Overcast
6:29 AM 39.2 °F 31.6 °F 39.2 °F 100% 29.55 in 10.0 mi NE 12.7 mph 20.7 mph N/A   Overcast
6:55 AM 39.2 °F 33.0 °F 39.2 °F 100% 29.55 in 10.0 mi ENE 9.2 mph - N/A   Overcast
7:20 AM 39.2 °F 32.0 °F 39.2 °F 100% 29.53 in 7.0 mi ENE 11.5 mph - N/A Rain Light Rain
7:55 AM 39.9 °F 36.7 °F 39.9 °F 100% 29.57 in 4.0 mi East 4.6 mph - N/A Rain Light Rain
8:05 AM 41.0 °F 39.0 °F 41.0 °F 100% 29.57 in 3.0 mi ENE 3.5 mph - N/A   Light Drizzle
8:06 AM 39.2 °F 37.0 °F 39.2 °F 100% 29.57 in 2.5 mi Variable 3.5 mph - N/A   Light Drizzle
8:16 AM 39.2 °F 35.0 °F 39.2 °F 100% 29.57 in 2.5 mi ENE 5.8 mph - N/A Rain Light Rain
8:23 AM 39.2 °F 35.0 °F 39.2 °F 100% 29.57 in 3.0 mi ENE 5.8 mph - N/A Rain Light Rain
8:25 AM 39.2 °F 35.0 °F 39.2 °F 100% 29.57 in 3.0 mi ENE 5.8 mph - N/A   Light Drizzle
8:46 AM 39.2 °F 35.0 °F 39.2 °F 100% 29.59 in 3.0 mi WSW 5.8 mph - N/A Rain Light Rain
8:55 AM 39.7 °F 34.3 °F 39.7 °F 100% 29.59 in 4.0 mi WSW 8.1 mph - 0.05 in   Light Drizzle
8:57 AM 39.2 °F 34.2 °F 39.2 °F 100% 29.59 in 4.0 mi WSW 6.9 mph - N/A Rain Light Rain
9:21 AM 39.2 °F 35.0 °F 39.2 °F 100% 29.59 in 5.0 mi West 5.8 mph - N/A   Light Drizzle
9:55 AM 40.6 °F 36.0 °F 40.6 °F 100% 29.59 in 6.0 mi WNW 6.9 mph - 0.07 in Rain Light Rain
10:00 AM 41.0 °F - 41.0 °F 100% 29.59 in 6.0 mi Calm Calm - N/A   Light Drizzle
10:07 AM 41.0 °F 35.8 °F 41.0 °F 100% 29.60 in 6.0 mi West 8.1 mph - N/A   Overcast
10:10 AM 41.0 °F 34.3 °F 41.0 °F 100% 29.58 in 7.0 mi West 11.5 mph - N/A Rain Light Drizzle
10:16 AM 41.0 °F 34.7 °F 41.0 °F 100% 29.61 in 7.0 mi West 10.4 mph - N/A Rain Light Drizzle
10:23 AM 41.0 °F 34.3 °F 41.0 °F 100% 29.59 in 7.0 mi West 11.5 mph - N/A Rain Light Drizzle
10:47 AM 39.2 °F 32.5 °F 39.2 °F 100% 29.62 in 7.0 mi WNW 10.4 mph - N/A   Light Drizzle
10:55 AM 39.7 °F 32.3 °F 39.6 °F 99% 29.62 in 10.0 mi WNW 12.7 mph - 0.01 in   Light Drizzle
11:02 AM 39.2 °F 33.0 °F 39.2 °F 100% 29.62 in 8.0 mi WNW 9.2 mph 19.6 mph N/A Rain Light Rain
11:32 AM 41.0 °F 35.2 °F 41.0 °F 100% 29.61 in 10.0 mi WSW 9.2 mph - N/A   Light Drizzle
11:55 AM 42.6 °F 37.2 °F 42.3 °F 99% 29.61 in 10.0 mi WNW 9.2 mph - 0.02 in   Mostly Cloudy
12:11 PM 42.8 °F 37.5 °F 42.8 °F 100% 29.61 in 10.0 mi WSW 9.2 mph - N/A   Mostly Cloudy
12:55 PM 45.3 °F 38.4 °F 42.8 °F 91% 29.60 in 10.0 mi West 16.1 mph 21.9 mph N/A   Mostly Cloudy
1:32 PM 46.4 °F 40.4 °F 41.0 °F 81% 29.60 in 10.0 mi West 13.8 mph 25.3 mph N/A   Scattered Clouds
1:55 PM 46.9 °F - 39.6 °F 76% 29.60 in 10.0 mi West 19.6 mph 26.5 mph N/A   Scattered Clouds
2:02 PM 46.4 °F 40.7 °F 39.2 °F 76% 29.60 in 10.0 mi West 12.7 mph 26.5 mph N/A   Mostly Cloudy
2:04 PM 46.4 °F 40.7 °F 39.2 °F 76% 29.60 in 10.0 mi WNW 12.7 mph 26.5 mph N/A   Mostly Cloudy
2:05 PM 46.4 °F 41.1 °F 39.2 °F 76% 29.60 in 10.0 mi WNW 11.5 mph 26.5 mph N/A   Mostly Cloudy
2:55 PM 48.4 °F - 38.8 °F 70% 29.61 in 10.0 mi West 15.0 mph 21.9 mph N/A   Mostly Cloudy
3:55 PM 47.8 °F - 37.2 °F 67% 29.62 in 10.0 mi West 10.4 mph - N/A   Overcast
4:55 PM 47.3 °F - 37.0 °F 68% 29.62 in 10.0 mi West 6.9 mph - N/A   Overcast
5:55 PM 46.9 °F - 34.5 °F 62% 29.65 in 10.0 mi West 6.9 mph - N/A   Overcast
6:55 PM 45.3 °F 43.0 °F 34.7 °F 66% 29.66 in 10.0 mi SW 4.6 mph - N/A   Overcast
7:55 PM 45.0 °F 41.2 °F 34.5 °F 67% 29.65 in 10.0 mi SSW 6.9 mph - 0.01 in   Overcast
8:55 PM 43.9 °F 40.5 °F 34.7 °F 70% 29.67 in 10.0 mi WSW 5.8 mph - N/A   Overcast
9:55 PM 43.3 °F 39.9 °F 33.8 °F 69% 29.66 in 10.0 mi SSW 5.8 mph - N/A   Overcast
10:55 PM 42.3 °F 38.6 °F 33.8 °F 72% 29.65 in 10.0 mi SW 5.8 mph - N/A   Mostly Cloudy
11:55 PM 40.1 °F 38.0 °F 35.6 °F 84% 29.64 in 10.0 mi SSW 3.5 mph - N/A   Overcast